Current Version              Previous Version:    01  02  03  04  05  06  07  08  09  10  11  12  13  14  15  16  17  18  19  20  21  22  23  24  25  26  27  28  29  30  
   31  32  33  34  35  36  37  38  39  40  41  42  43  44  45  46  47  48  49  50  51  52  53  54  55  56  57  58  59  60  

[Printable]
165
ASUS44 KFWD 181815
RWRTX
NORTH TEXAS HOURLY WEATHER ROUNDUP
NATIONAL WEATHER SERVICE FORT WORTH TX
100 PM CDT FRI APR 18 2014

NOTE: "FAIR" INDICATES FEW OR NO CLOUDS BELOW 12,000 FEET WITH NO
SIGNIFICANT WEATHER AND/OR OBSTRUCTIONS TO VISIBILITY.

TXZ118-119-181900-
DALLAS/FORT WORTH METROPLEX

CITY           SKY/WX    TMP DP  RH WIND       PRES   REMARKS
DFW AIRPORT    MOSUNNY   72  50  45 NE5       30.21F
6HR MIN TEMP:  57; 6HR MAX TEMP:  72;

DALLAS LOVE    MOSUNNY   72  48  42 VRB5      30.21F
6HR MIN TEMP:  57; 6HR MAX TEMP:  72;

FTW MEACHAM    SUNNY     70  52  52 VRB5      30.21F
6HR MIN TEMP:  55; 6HR MAX TEMP:  71;

DAL-EXECUTIVE  SUNNY     72  48  42 NE9       30.21F
6HR MIN TEMP:  56; 6HR MAX TEMP:  72;

FTW-ALLIANCE   MOSUNNY   67  50  54 VRB3      30.22F
6HR MIN TEMP:  54; 6HR MAX TEMP:  68;

FTW-NAS-JRB    MOSUNNY   72  48  42 VRB6      30.26F
6HR MIN TEMP:  56; 6HR MAX TEMP:  74;

FTW-SPINKS     MOSUNNY   72  50  46 E6        30.23F
ARLINGTON      SUNNY     70  48  45 VRB3      30.21F
6HR MIN TEMP:  49; 6HR MAX TEMP:  70;

GRAND PRAIRIE  SUNNY     70  48  46 E9        30.24F
ADDISON        MOSUNNY   70  46  43 E7        30.21F
MESQUITE       SUNNY     70  48  46 NE3       30.21F
LANCASTER      SUNNY     69  47  45 N8        30.23F
6HR MIN TEMP:  53; 6HR MAX TEMP:  69;

$$

TXZ091>094-102>105-117-120-121-131>134-181900-
NORTH CENTRAL TEXAS

CITY           SKY/WX    TMP DP  RH WIND       PRES   REMARKS
SHRMAN/DENISON SUNNY     69  44  39 NE6       30.23F
6HR MIN TEMP:  50; 6HR MAX TEMP:  69;

GAINESVILLE    SUNNY     69  46  42 E9        30.24F
6HR MIN TEMP:  51; 6HR MAX TEMP:  69;

BOWIE          MOSUNNY   69  50  50 NE3       30.22F
6HR MIN TEMP:  55; 6HR MAX TEMP:  70;

BRIDGEPORT     SUNNY     67  51  57 CALM      30.25F
6HR MIN TEMP:  52; 6HR MAX TEMP:  68;

DECATUR        MOSUNNY   66  51  57 N5        30.23F
6HR MIN TEMP:  54; 6HR MAX TEMP:  67;

DENTON         SUNNY     70  52  52 NE8       30.21F
6HR MIN TEMP:  55; 6HR MAX TEMP:  70;

MCKINNEY       SUNNY     71  49  45 VRB3      30.22F
6HR MIN TEMP:  52; 6HR MAX TEMP:  71;

GREENVILLE     SUNNY     70  41  35 NE10      30.22F
ROCKWALL       SUNNY     71  49  45 N12       30.21F
6HR MIN TEMP:  55; 6HR MAX TEMP:  72;

TERRELL        SUNNY     71  49  45 E13       30.22F
6HR MIN TEMP:  56; 6HR MAX TEMP:  71;

WAXAHACHIE     SUNNY     69  48  47 E8        30.23F
6HR MIN TEMP:  55; 6HR MAX TEMP:  70;

CLEBURNE       SUNNY     70  52  52 CALM      30.24F
GRANBURY       CLOUDY    70  53  53 NE5       30.23F
6HR MIN TEMP:  51; 6HR MAX TEMP:  71;

$$

TXZ083>090-098>101-113>116-127>130-139>142-154-155-181900-
WESTERN NORTH TEXAS

CITY           SKY/WX    TMP DP  RH WIND       PRES   REMARKS
WICHITA FALLS  CLOUDY    65  50  58 S3        30.23F
6HR MIN TEMP:  49; 6HR MAX TEMP:  65;

WF-KICKAPOO    CLOUDY    66  50  56 SW3       30.25F
6HR MIN TEMP:  52; 6HR MAX TEMP:  66;

VERNON         CLOUDY    61  51  70 SE6       30.26F
6HR MIN TEMP:  46; 6HR MAX TEMP:  77;

ABILENE        MOSUNNY   65  50  58 E5        30.23F
6HR MIN TEMP:  51; 6HR MAX TEMP:  66;

ABILENE-DYESS  PTSUNNY   64  52  63 VRB2      30.23F
BRECKENRIDGE   CLOUDY    65  52  64 W3        30.24F
6HR MIN TEMP:  55; 6HR MAX TEMP:  65;

GRAHAM         CLOUDY    66  52  61 CALM      30.23F
6HR MIN TEMP:  55; 6HR MAX TEMP:  66;

MINERAL WELLS  CLOUDY    67  53  61 NE5       30.22F
6HR MIN TEMP:  52; 6HR MAX TEMP:  69;

STEPHENVILLE   CLOUDY    67  52  57 NE7       30.25F
6HR MIN TEMP:  53; 6HR MAX TEMP:  69;

COMANCHE       CLOUDY    65  54  66 NE7       30.24S
6HR MIN TEMP:  55; 6HR MAX TEMP:  65;

BROWNWOOD      PTSUNNY   68  54  60 E3        30.23S
COLEMAN        CLOUDY    67  49  51 CALM      30.22F
6HR MIN TEMP:  54; 6HR MAX TEMP:  68;

BRADY          MOSUNNY   66  52  59 N5        30.21F
$$

TXZ143>147-156>162-174-175-181900-
CENTRAL TEXAS

CITY           SKY/WX    TMP DP  RH WIND       PRES   REMARKS
WACO           MOSUNNY   71  53  52 VRB3      30.21F
6HR MIN TEMP:  52; 6HR MAX TEMP:  72;

WACO-TSTC      MOSUNNY   72  52  49 NE5       30.21F
WACO-MCGREGOR  PTSUNNY   70  54  56 E8        30.23F
6HR MIN TEMP:  54; 6HR MAX TEMP:  70;

HILLSBORO      SUNNY     70  51  50 N8        30.22F
6HR MIN TEMP:  55; 6HR MAX TEMP:  70;

CORSICANA      SUNNY     73  50  44 N7        30.21F
6HR MIN TEMP:  54; 6HR MAX TEMP:  73;

MEXIA          SUNNY     70  52  52 N5        30.20F
6HR MIN TEMP:  54; 6HR MAX TEMP:  70;

HEARNE         CLOUDY    72  54  53 NW3       30.20F
6HR MIN TEMP:  57; 6HR MAX TEMP:  73;

CAMERON        MOSUNNY   72  55  55 CALM      30.20F
6HR MIN TEMP:  57; 6HR MAX TEMP:  72;

TEMPLE         PTSUNNY   70  54  56 N9G17     30.22F
6HR MIN TEMP:  54; 6HR MAX TEMP:  72;

KILLEEN        MOSUNNY   72  54  53 NE9       30.20F
KILLEEN-SKYLRK PTSUNNY   68  54  60 CALM      30.20F
6HR MIN TEMP:  55; 6HR MAX TEMP:  70;

FORT HOOD      PTSUNNY   74  55  51 E7        30.20F
6HR MIN TEMP:  58; 6HR MAX TEMP:  74;

GATESVILLE     PTSUNNY   66  55  68 NE5       30.24F
HAMILTON       CLOUDY    70  54  57 NE6       30.23F
6HR MIN TEMP:  56; 6HR MAX TEMP:  70;

LAMPASAS       CLOUDY    71  59  66 NE3       30.21S
6HR MIN TEMP:  58; 6HR MAX TEMP:  71;

$$

TXZ095>097-106>112-122>126-135>138-148>153-164>167-181900-
EAST TEXAS

CITY           SKY/WX    TMP DP  RH WIND       PRES   REMARKS
PARIS          SUNNY     70  46  43 E10       30.23F
6HR MIN TEMP:  48; 6HR MAX TEMP:  70;

SULPHUR SPRNGS SUNNY     71  48  44 E5        30.24F
6HR MIN TEMP:  51; 6HR MAX TEMP:  71;

CLARKSVILLE    SUNNY     71  44  38 CALM      30.22F
6HR MIN TEMP:  45; 6HR MAX TEMP:  71;

MOUNT PLEASANT SUNNY     70  46  42 CALM      30.23F
6HR MIN TEMP:  48; 6HR MAX TEMP:  70;

GILMER         MOSUNNY   70  48  46 CALM      30.22F
MINEOLA        SUNNY     72  46  40 NE5       30.22F
TYLER          SUNNY     72  46  39 N7        30.20F
6HR MIN TEMP:  57; 6HR MAX TEMP:  73;

LONGVIEW       PTSUNNY   71  50  47 NE3       30.19F
6HR MIN TEMP:  54; 6HR MAX TEMP:  72;

MARSHALL       PTSUNNY   71  52  51 N7        30.21F
6HR MIN TEMP:  53; 6HR MAX TEMP:  71;

ATHENS         SUNNY     70  46  43 NE10      30.19F
PALESTINE      SUNNY     74  48  39 N10G17    30.20F
JACKSONVILLE   SUNNY     69  46  43 E7        30.21F
HENDERSON      MOSUNNY   72  46  39 NE7       30.21F
6HR MIN TEMP:  54; 6HR MAX TEMP:  72;

NACOGDOCHES    SUNNY     72  50  46 NE5       30.19F
6HR MIN TEMP:  52; 6HR MAX TEMP:  72;

LUFKIN         SUNNY     76  51  41 VRB5      30.18F
6HR MIN TEMP:  57; 6HR MAX TEMP:  76;

$$

SUPPLEMENTAL OBSERVATIONS (CENTRAL)

CITY           SKY/WX    TMP DP  RH WIND       PRES   REMARKS
LAKE TEXOMA      N/A     63  48  59 NW5         N/A
CADDO GRASSLND   N/A     73  45  35 N5          N/A
PAT MAYSE LAKE   N/A     70  43  37 NW7         N/A
GREENVILLE       N/A     72  46  40 NE9         N/A
CEDAR HILL       N/A     73  50  43 NE6         N/A
ATHENS           N/A     73  46  38 E7          N/A
LAKE LIMESTONE   N/A     72  52  49 N8          N/A
MCGREGOR         N/A     70  54  56 N5          N/A